FM-6

Last updated on Sun Apr 12 2026 00:02:53 GMT+0000 (Coordinated Universal Time)

1 39360U 13058A 26100.71329503 -.00000012 00000+0 00000+0 0 9999 2 39360 0.0182 133.5467 0002478 63.6518 142.1518 1.00255376 45395
UTC large
Height (km)
Speed (km/s)
/
Latitude / Longitude
Inclination (degrees)
Orbital Period (minutes)
Azimuth
Elevation
Range (km)
Doppler Factor

Next 0 passes for location: London (51.5072 / 0.1276)

Sorry there are no passes over London.
FM-6